GORIZONT 25 1 21922U 92017A 09182.01852836 -.00000341 +00000-0 +10000-3 0 02163 2 21922 011.5277 042.2371 0027434 299.8771 059.8288 00.99849641063080 GORIZONT 26 1 22041U 92043A 09183.23359750 .00000045 00000-0 10000-3 0 8512 2 22041 011.3905 043.5993 0029770 103.2475 257.0528 00.99241942 62029 GORIZONT 27 1 22245U 92082A 09182.93708951 -.00000251 +00000-0 +10000-3 0 04626 2 22245 011.2991 044.7260 0013675 226.6524 133.2069 01.00218351065097 GORIZONT 28 1 22880U 93069A 09183.44981499 -.00000326 +00000-0 +10000-3 0 01994 2 22880 010.8218 048.0385 0032930 358.8217 180.4039 00.99658096057415 GORIZONT 29 1 22907U 93072A 09182.97925447 -.00000336 00000-0 10000-3 0 6734 2 22907 010.7982 048.1399 0011926 206.1415 153.7651 01.00155394 57177 GORIZONT 30 1 23108U 94030A 09183.40933225 -.00000158 00000-0 10000-3 0 4982 2 23108 010.6452 049.4527 0001700 137.4320 222.5467 01.00287091 55380 GORIZONT 31 1 23775U 96005A 09182.37968603 -.00000091 +00000-0 +10000-3 0 08462 2 23775 009.6004 055.2262 0020678 066.9819 293.1801 00.99899334049178 GORIZONT 32 1 23880U 96034A 09183.66467036 -.00000124 +00000-0 +10000-3 0 02414 2 23880 009.4674 056.3055 0001473 013.2682 076.6062 01.00269236047999 GORIZONT 33 1 26372U 00029A 09183.37187746 +.00000057 +00000-0 +10000-3 0 06370 2 26372 006.7175 065.3630 0002247 339.1784 020.6817 01.00222913033326